[[{"header":{"parameterUnit":"m.s-1","parameterCategory":1,"la1":30.2992,"la2":30.254,"lo1":-89.0895,"lo2":-89.0443,"dy":0.0025,"dx":0.0025,"nx":19,"ny":19,"refTime":"2026-03-31T09:00:00:Z","depth":0,"parameterNumber":2,"parameterNumberName":"U-component_of_WINDS"},"data":[0,0,0,-2.5782,-2.5784,-2.5894,-2.5894,-2.6031,-2.6032,0,0,0,0,0,0,0,0,0,0,0,-2.5747,-2.5748,-2.5781,-2.5784,-2.5893,-2.5894,-2.603,-2.6032,0,0,0,0,0,0,0,0,0,0,0,-2.5747,-2.5748,-2.5749,-2.5784,-2.5893,-2.5894,-2.603,-2.5949,0,0,0,0,0,0,0,0,0,0,-2.5843,-2.5809,-2.5747,-2.5749,-2.5785,-2.5893,-2.5894,-2.5945,-2.5954,-2.598,0,-2.6002,0,-2.6019,-2.6041,-2.6041,0,0,0,-2.5785,-2.5802,-2.5833,-2.5749,-2.5786,-2.5893,-2.5844,-2.595,-2.596,-2.5991,-2.6004,-2.6009,-2.6022,-2.6042,-2.6042,-2.6187,-2.6188,0,0,-2.5779,-2.5766,-2.5826,-2.5839,-2.5823,-2.5841,-2.5848,-2.5956,-2.5969,-2.6005,-2.6013,-2.6024,-2.6043,-2.6044,-2.6187,-2.6187,0,0,0,-2.5761,-2.5761,-2.579,-2.5834,-2.5854,-2.5844,-2.5852,-2.5964,-2.5975,-2.6014,-2.6025,-2.6043,-2.6045,-2.6186,-2.6187,-2.6203,0,0,0,-2.5757,-2.5751,-2.5787,-2.578,-2.5852,-2.591,-2.5858,-2.5967,-2.598,-2.6025,-2.6043,-2.6046,-2.6185,-2.6187,-2.6201,-2.6213,0,0,0,-2.5741,-2.5749,-2.5764,-2.5779,-2.5826,-2.5909,-2.5926,-2.597,-2.5987,-2.6041,-2.6047,-2.6185,-2.6186,-2.62,-2.621,-2.6246,0,0,0,-2.5719,-2.5777,-2.5764,-2.5834,-2.5825,-2.5919,-2.5925,-2.5996,-2.6045,-2.6044,-2.6186,-2.6187,-2.6199,-2.6208,-2.6244,-2.6273,-2.6284,0,0,-2.5784,-2.5784,-2.5827,-2.5818,-2.5911,-2.5903,-2.5998,-2.6056,-2.6074,-2.6148,-2.6152,-2.6202,-2.621,-2.6246,-2.6353,-2.6362,0,0,0,-2.5843,-2.5873,-2.59,-2.5946,-2.5992,-2.6032,-2.6077,-2.6099,-2.6163,-2.6109,-2.6226,-2.6231,-2.6253,-2.6267,-2.6274,-2.6293,-2.6193,-2.6193,-2.6193,-2.5915,-2.5936,-2.6006,-2.604,-2.6085,-2.6131,-2.6169,-2.6206,-2.6213,-2.624,-2.6262,-2.6325,-2.6341,-2.6347,-2.6366,-2.628,-2.628,-2.628,-2.628,-2.6013,-2.6058,-2.6067,-2.6139,-2.616,-2.622,-2.6267,-2.627,-2.6329,-2.631,-2.633,-2.6305,-2.6355,-2.6374,-2.6281,-2.6281,-2.6281,-2.6281,-2.6281,-2.6062,-2.6087,-2.6112,-2.6181,-2.6232,-2.6265,-2.6321,-2.6339,-2.6355,-2.6375,-2.64,-2.6399,-2.64,-2.6386,-2.6386,-2.6386,-2.6387,-2.6387,-2.6387,-2.6101,-2.613,-2.6175,-2.6229,-2.6261,-2.6306,-2.6354,-2.6386,-2.6425,-2.6433,-2.6434,-2.6437,-2.6357,-2.6336,-2.639,-2.639,-2.6389,-2.6389,-2.6389,-2.619,-2.6173,-2.6243,-2.6275,-2.634,-2.639,-2.6412,-2.6476,-2.6505,-2.6532,-2.6532,-2.647,-2.6471,-2.6466,-2.6448,-2.6528,-2.6528,-2.6528,-2.6528,-2.623,-2.6233,-2.6308,-2.6358,-2.641,-2.6437,-2.6515,-2.6553,-2.659,-2.6609,-2.66,-2.6579,-2.6572,-2.6577,-2.6569,-2.6553,-2.6658,-2.6658,-2.6658,-2.6286,-2.6294,-2.6357,-2.6393,-2.6445,-2.649,-2.6564,-2.6621,-2.6659,-2.6664,-2.6624,-2.6619,-2.6584,-2.6573,-2.6574,-2.6561,-2.6532,0,0]},{"header":{"parameterUnit":"m.s-1","parameterCategory":1,"la1":30.2992,"la2":30.254,"lo1":-89.0895,"lo2":-89.0443,"dy":0.0025,"dx":0.0025,"nx":19,"ny":19,"refTime":"2026-03-31T09:00:00:Z","depth":0,"parameterNumber":3,"parameterNumberName":"V-component_of_WINDS"},"data":[0,0,0,2.6946,2.6947,2.6997,2.6997,2.7069,2.707,0,0,0,0,0,0,0,0,0,0,0,2.6935,2.6935,2.6946,2.6948,2.6997,2.6997,2.7069,2.707,0,0,0,0,0,0,0,0,0,0,0,2.6934,2.6935,2.6936,2.6948,2.6997,2.6997,2.7069,2.7029,0,0,0,0,0,0,0,0,0,0,2.6979,2.6971,2.6935,2.6936,2.6948,2.6997,2.6997,2.7027,2.7031,2.705,0,2.7065,0,2.7068,2.7075,2.7075,0,0,0,2.6946,2.6967,2.6978,2.6936,2.6949,2.6997,2.6974,2.7029,2.7034,2.7056,2.7066,2.7068,2.707,2.7075,2.7076,2.7185,2.7186,0,0,2.6943,2.6945,2.6974,2.6981,2.6972,2.6973,2.6976,2.7032,2.7044,2.7066,2.707,2.7071,2.7076,2.7076,2.7185,2.7185,0,0,0,2.6936,2.6944,2.6953,2.6978,2.6987,2.6974,2.6978,2.7042,2.7044,2.7071,2.7072,2.7076,2.7077,2.7184,2.7185,2.7218,0,0,0,2.6935,2.694,2.6952,2.6954,2.6986,2.7014,2.6986,2.704,2.7047,2.7071,2.7076,2.7078,2.7183,2.7185,2.7215,2.7233,0,0,0,2.6931,2.6939,2.6947,2.6954,2.6975,2.7013,2.7019,2.7042,2.7047,2.7075,2.7078,2.7183,2.7184,2.7213,2.723,2.7264,0,0,0,2.6927,2.6975,2.6948,2.7002,2.6975,2.7032,2.7019,2.7062,2.7089,2.7077,2.7183,2.7185,2.7213,2.7227,2.7262,2.7295,2.7308,0,0,2.6989,2.6982,2.7014,2.6991,2.7055,2.7025,2.7094,2.7117,2.7118,2.7163,2.7166,2.7216,2.7229,2.7264,2.738,2.7391,0,0,0,2.7035,2.7058,2.7074,2.71,2.7119,2.7138,2.715,2.7159,2.7198,2.7141,2.7237,2.7245,2.7265,2.7281,2.729,2.7308,2.7192,2.7192,2.7191,2.7126,2.7124,2.7178,2.7183,2.7209,2.7223,2.7245,2.726,2.725,2.7273,2.7287,2.7358,2.7376,2.7383,2.7402,2.7303,2.7303,2.7303,2.7303,2.7217,2.7251,2.7239,2.7286,2.7286,2.7326,2.7343,2.7335,2.7375,2.7346,2.7364,2.7334,2.7394,2.7411,2.7306,2.7306,2.7305,2.7305,2.7305,2.7278,2.7294,2.7304,2.7344,2.7376,2.738,2.7419,2.7417,2.7415,2.7433,2.7449,2.7449,2.7449,2.7441,2.7441,2.7441,2.7441,2.7442,2.7442,2.7337,2.7348,2.738,2.7406,2.7424,2.7448,2.7464,2.7483,2.7503,2.7499,2.7499,2.749,2.7399,2.7378,2.7446,2.7445,2.7444,2.7444,2.7444,2.7433,2.7411,2.7461,2.748,2.7512,2.7545,2.7542,2.7581,2.7596,2.7616,2.7604,2.7537,2.753,2.7523,2.7505,2.7602,2.7602,2.7602,2.7602,2.7485,2.7481,2.7534,2.7564,2.7593,2.7596,2.7657,2.7671,2.7683,2.7694,2.7679,2.7655,2.7648,2.7646,2.7636,2.762,2.7743,2.7743,2.7743,2.7545,2.7545,2.7595,2.7605,2.7631,2.7654,2.7711,2.7749,2.7758,2.7749,2.7702,2.7696,2.7657,2.7644,2.7634,2.7619,2.7588,0,0]}]]